CW6666 Weather Reports


Display with metric or nautical units.
time (UTC)temp
F
wind
direction
speed
MPH
gust
MPH
rain 1hr
in
rain 24hr
in
rain mn
in
humidity
%
barometer
mb
20170124131106 80 12 10.0 14.0 0.00 0.00 0.00 85 1012.5
20170124130606 80 15 7.0 18.0 0.00 0.00 0.00 84 1012.5
20170124130106 80 21 14.0 18.0 0.00 0.00 0.00 84 1012.5
20170124125606 80 11 10.0 21.0 0.00 0.00 0.00 84 1012.5
20170124125106 80 14 12.0 24.0 0.00 0.00 0.00 85 1012.5
20170124124606 80 19 15.0 24.0 0.00 0.00 0.00 85 1012.5
20170124124106 80 28 13.0 22.0 0.00 0.00 0.00 86 1012.7
20170124123606 80 30 14.0 22.0 0.00 0.00 0.00 87 1012.7
20170124123106 79 19 10.0 19.0 0.00 0.00 0.00 87 1012.7
20170124122606 79 24 8.0 19.0 0.00 0.00 0.00 86 1012.8
20170124122106 79 15 9.0 11.0 0.00 0.00 0.00 86 1012.8
20170124121606 79 25 6.0 11.0 0.00 0.00 0.00 86 1012.8
20170124121106 79 25 5.0 11.0 0.00 0.00 0.00 85 1012.9
20170124120606 79 28 3.0 11.0 0.00 0.00 0.00 85 1012.9
20170124120106 79 15 5.0 11.0 0.00 0.00 0.00 85 1012.9
20170124115606 79 22 9.0 11.0 0.00 0.00 0.00 85 1012.8
20170124115106 79 22 6.0 11.0 0.00 0.00 0.00 84 1012.8
20170124114606 80 13 6.0 12.0 0.00 0.00 0.00 84 1012.9
20170124114106 80 22 7.0 16.0 0.00 0.00 0.00 84 1012.9
20170124113606 80 32 11.0 18.0 0.00 0.00 0.00 83 1012.9
20170124113106 80 26 9.0 22.0 0.00 0.00 0.00 83 1012.9
20170124112606 80 24 13.0 22.0 0.00 0.00 0.00 83 1012.9
20170124112106 80 22 15.0 23.0 0.00 0.00 0.00 83 1012.9
20170124111606 80 30 15.0 23.0 0.00 0.00 0.00 83 1012.9
20170124111106 80 32 16.0 23.0 0.00 0.00 0.00 82 1012.7
20170124110606 81 28 15.0 23.0 0.00 0.00 0.00 82 1012.7
20170124110106 81 26 12.0 25.0 0.00 0.00 0.00 81 1012.7
20170124105606 81 27 15.0 26.0 0.00 0.00 0.00 82 1012.5
20170124105106 81 37 17.0 26.0 0.00 0.00 0.00 80 1012.5
20170124104606 81 42 21.0 27.0 0.00 0.00 0.00 80 1012.5
20170124104106 81 37 23.0 27.0 0.00 0.00 0.00 80 1012.4
20170124103606 81 43 22.0 26.0 0.00 0.00 0.00 82 1012.4
20170124103106 81 43 24.0 24.0 0.00 0.00 0.00 82 1012.4
20170124102606 81 40 17.0 26.0 0.00 0.00 0.00 82 1012.3
20170124102106 81 49 21.0 26.0 0.00 0.00 0.00 81 1012.3
20170124101606 81 46 21.0 25.0 0.00 0.00 0.00 81 1012.3
20170124101106 81 53 23.0 25.0 0.00 0.00 0.00 82 1012.1
20170124100606 81 42 19.0 25.0 0.00 0.00 0.00 82 1012.1
20170124100106 81 46 18.0 23.0 0.00 0.00 0.00 83 1012.1
20170124095606 81 48 18.0 24.0 0.00 0.00 0.00 84 1011.9
20170124095106 81 61 17.0 24.0 0.00 0.00 0.00 84 1011.9
20170124094606 81 45 20.0 24.0 0.00 0.00 0.00 85 1011.9
20170124094106 81 34 15.0 23.0 0.00 0.00 0.00 85 1011.9
20170124093606 81 36 21.0 23.0 0.00 0.00 0.00 83 1011.9
20170124093106 81 34 20.0 23.0 0.00 0.00 0.00 83 1011.9
20170124092606 81 30 15.0 22.0 0.00 0.00 0.00 84 1011.6
20170124092106 81 34 19.0 24.0 0.00 0.00 0.00 85 1011.6
20170124091606 81 36 16.0 24.0 0.00 0.00 0.00 85 1011.6
20170124091106 81 23 14.0 17.0 0.00 0.00 0.00 85 1011.3
20170124090606 81 28 9.0 23.0 0.00 0.00 0.00 84 1011.3
20170124090106 81 39 9.0 23.0 0.00 0.00 0.00 85 1011.3
20170124085606 81 34 19.0 23.0 0.00 0.00 0.00 84 1011.3
20170124085106 81 34 16.0 23.0 0.00 0.00 0.00 84 1011.3
20170124084606 81 30 11.0 17.0 0.00 0.00 0.00 85 1011.3
20170124084106 81 24 10.0 18.0 0.00 0.00 0.00 84 1011.2
20170124083606 81 34 9.0 21.0 0.00 0.00 0.00 84 1011.2
20170124083106 81 32 16.0 24.0 0.00 0.00 0.00 85 1011.2
20170124082606 81 48 19.0 24.0 0.00 0.00 0.00 84 1010.9
20170124082106 81 19 14.0 23.0 0.00 0.00 0.00 84 1010.9
20170124081606 81 36 15.0 23.0 0.00 0.00 0.00 85 1010.9
20170124081106 81 26 14.0 22.0 0.00 0.00 0.00 84 1010.9
20170124080606 81 31 22.0 22.0 0.00 0.00 0.00 85 1010.9
20170124080106 81 32 10.0 19.0 0.00 0.00 0.00 86 1010.9
20170124075606 81 11 9.0 19.0 0.00 0.00 0.00 84 1011.0
20170124075106 81 21 11.0 27.0 0.00 0.00 0.00 83 1011.0
20170124074606 81 35 19.0 27.0 0.00 0.00 0.00 83 1011.0
20170124074106 82 38 25.0 26.0 0.00 0.00 0.00 83 1010.8
20170124073606 82 32 19.0 22.0 0.00 0.00 0.00 80 1010.8
20170124073106 82 27 17.0 21.0 0.00 0.00 0.00 81 1010.8
20170124072606 82 31 12.0 22.0 0.00 0.00 0.00 81 1010.5
20170124072106 82 22 16.0 26.0 0.00 0.00 0.00 81 1010.5
20170124071606 82 22 18.0 26.0 0.00 0.00 0.00 81 1010.5
20170124071106 82 39 17.0 25.0 0.00 0.00 0.00 81 1010.6
20170124070606 82 36 20.0 25.0 0.00 0.00 0.00 82 1010.6
20170124070115 82 27 17.0 23.0 0.00 0.00 0.00 83 1010.6
20170124065606 82 30 19.0 23.0 0.00 0.00 0.00 81 1010.5
20170124065106 82 42 14.0 23.0 0.00 0.00 0.00 82 1010.5
20170124064606 82 32 19.0 24.0 0.00 0.00 0.00 82 1010.5
20170124064106 82 46 19.0 24.0 0.00 0.00 0.00 81 1010.4
20170124063606 82 39 16.0 21.0 0.00 0.00 0.00 83 1010.4
20170124063106 82 25 13.0 21.0 0.00 0.00 0.00 84 1010.4
20170124062606 82 36 18.0 21.0 0.00 0.00 0.00 83 1010.4
20170124062106 82 5 16.0 21.0 0.00 0.00 0.00 83 1010.4
20170124061606 82 25 15.0 20.0 0.00 0.00 0.00 84 1010.4
20170124061106 82 22 12.0 22.0 0.00 0.00 0.00 84 1010.3
20170124060606 82 34 15.0 22.0 0.00 0.00 0.00 84 1010.3
20170124060106 82 31 19.0 22.0 0.00 0.00 0.00 86 1010.3
20170124055606 82 49 21.0 21.0 0.00 0.00 0.00 85 1010.3
20170124055106 82 42 16.0 21.0 0.00 0.00 0.00 84 1010.3
20170124054606 82 30 13.0 22.0 0.00 0.00 0.00 84 1010.3
20170124054106 82 22 18.0 22.0 0.00 0.00 0.00 84 1010.1
20170124053606 82 39 18.0 20.0 0.00 0.00 0.00 82 1010.1
20170124053105 83 34 17.0 19.0 0.00 0.00 0.00 82 1010.1
20170124052606 82 36 13.0 19.0 0.00 0.00 0.00 82 1010.2
20170124052106 82 16 12.0 21.0 0.00 0.00 0.00 82 1010.2
20170124051606 82 26 12.0 22.0 0.00 0.00 0.00 82 1010.2
20170124051106 82 26 14.0 22.0 0.00 0.00 0.00 81 1010.2
20170124050606 82 15 12.0 21.0 0.00 0.00 0.00 80 1010.2
20170124050105 82 5 10.0 23.0 0.00 0.00 0.00 82 1010.2
20170124045606 82 41 16.0 23.0 0.00 0.00 0.00 82 1009.9
20170124045105 82 32 14.0 23.0 0.00 0.00 0.00 84 1009.9
20170124044606 82 39 17.0 23.0 0.00 0.00 0.00 83 1009.9
20170124044106 83 27 16.0 21.0 0.00 0.00 0.00 83 1010.1
20170124043605 83 33 18.0 21.0 0.00 0.00 0.00 81 1010.1
20170124043106 82 42 16.0 21.0 0.00 0.00 0.00 81 1010.1
20170124042606 82 32 18.0 20.0 0.00 0.00 0.00 81 1010.2
20170124042106 82 24 17.0 21.0 0.00 0.00 0.00 79 1010.2
20170124041606 82 26 14.0 21.0 0.00 0.00 0.00 79 1010.2
20170124041106 82 15 12.0 20.0 0.00 0.00 0.00 81 1010.3
20170124040606 82 34 18.0 22.0 0.00 0.00 0.00 84 1010.3
20170124040106 82 39 19.0 22.0 0.00 0.00 0.00 83 1010.3
20170124035605 82 32 15.0 21.0 0.00 0.00 0.00 83 1010.4
20170124035106 82 41 18.0 21.0 0.00 0.00 0.00 82 1010.4
20170124034606 82 35 12.0 21.0 0.00 0.00 0.00 81 1010.4
20170124034106 82 46 14.0 19.0 0.00 0.00 0.00 82 1010.7
20170124033606 81 28 14.0 19.0 0.00 0.00 0.00 82 1010.7
20170124033105 82 43 16.0 18.0 0.00 0.00 0.00 84 1010.7
20170124032605 82 34 12.0 18.0 0.00 0.00 0.00 85 1010.8
20170124032105 82 15 11.0 17.0 0.00 0.00 0.00 84 1010.8
20170124031605 82 9 10.0 18.0 0.00 0.00 0.00 84 1010.8
20170124031106 81 35 10.0 18.0 0.00 0.00 0.00 85 1010.9
20170124030606 81 55 10.0 18.0 0.00 0.00 0.00 84 1010.9
20170124030106 81 33 10.0 20.0 0.00 0.00 0.00 87 1010.9
20170124025606 80 34 12.0 21.0 0.00 0.00 0.00 85 1011.2
20170124025106 80 38 17.0 24.0 0.00 0.00 0.00 87 1011.2
20170124024605 79 44 20.0 24.0 0.00 0.00 0.00 88 1011.2
20170124024106 79 42 18.0 19.0 0.00 0.00 0.00 90 1011.6
20170124023606 79 31 11.0 20.0 0.00 0.00 0.00 89 1011.6
20170124023106 79 36 14.0 23.0 0.00 0.00 0.00 88 1011.6
20170124022606 79 46 15.0 28.0 0.00 0.00 0.00 87 1011.4
20170124022105 80 43 21.0 28.0 0.00 0.00 0.00 86 1011.4
20170124021606 82 55 27.0 28.0 0.00 0.00 0.00 83 1011.5
20170124021106 83 35 17.0 20.0 0.00 0.00 0.00 81 1011.8
20170124020605 83 25 10.0 19.0 0.00 0.00 0.00 81 1011.8
20170124020105 83 30 15.0 19.0 0.00 0.00 0.00 81 1011.8
20170124015606 83 23 13.0 22.0 0.00 0.00 0.00 81 1012.0
20170124015106 83 25 13.0 22.0 0.00 0.00 0.00 83 1012.0
20170124014605 83 27 11.0 20.0 0.00 0.00 0.00 80 1012.0
20170124014105 83 20 13.0 20.0 0.00 0.00 0.00 80 1012.4
20170124013605 83 24 16.0 20.0 0.00 0.00 0.00 80 1012.4
20170124013106 83 31 16.0 20.0 0.00 0.00 0.00 81 1012.4
20170124012605 83 36 16.0 19.0 0.00 0.00 0.00 80 1012.4
20170124012106 83 24 14.0 21.0 0.00 0.00 0.00 81 1012.4
20170124011606 83 28 12.0 21.0 0.00 0.00 0.00 80 1012.4
20170124011105 83 25 15.0 22.0 0.00 0.00 0.00 80 1012.8
20170124010605 83 27 18.0 23.0 0.00 0.00 0.00 80 1012.8
20170124010105 83 34 18.0 23.0 0.00 0.00 0.00 80 1012.8
20170124005606 83 34 17.0 22.0 0.00 0.00 0.00 80 1013.0
20170124005105 83 35 19.0 22.0 0.00 0.00 0.00 81 1013.0
20170124004605 82 36 13.0 20.0 0.00 0.00 0.00 81 1013.0
20170124004106 83 13 12.0 21.0 0.00 0.00 0.00 81 1013.4
20170124003606 83 27 15.0 21.0 0.00 0.00 0.00 81 1013.4
20170124003105 83 36 17.0 21.0 0.00 0.00 0.00 81 1013.4
20170124002605 83 9 12.0 20.0 0.00 0.00 0.00 82 1013.4
20170124002105 82 28 16.0 20.0 0.00 0.00 0.00 81 1013.4
20170124001605 82 31 20.0 23.0 0.00 0.00 0.00 81 1013.4
20170124001105 83 32 18.0 23.0 0.00 0.00 0.00 81 1013.3
20170124000605 82 32 14.0 21.0 0.00 0.00 0.00 81 1013.3
20170124000105 82 29 14.0 21.0 0.00 0.00 0.00 80 1013.3
20170123235605 82 29 18.0 21.0 0.00 0.00 0.00 80 1013.4
20170123235105 83 22 16.0 21.0 0.00 0.00 0.00 82 1013.4
20170123234605 82 40 21.0 22.0 0.00 0.00 0.00 80 1013.4
20170123234105 82 32 17.0 22.0 0.00 0.00 0.00 80 1013.4
20170123233606 82 21 15.0 22.0 0.00 0.00 0.00 81 1013.4
20170123233106 82 41 11.0 22.0 0.00 0.00 0.00 81 1013.4
20170123232605 82 34 14.0 21.0 0.00 0.00 0.00 80 1013.3
20170123232105 82 32 14.0 21.0 0.00 0.00 0.00 81 1013.3
20170123231605 82 26 12.0 21.0 0.00 0.00 0.00 82 1013.3
20170123231106 82 24 10.0 21.0 0.00 0.00 0.00 82 1013.2
20170123230605 82 36 15.0 18.0 0.00 0.00 0.00 82 1013.2
20170123230105 82 16 11.0 18.0 0.00 0.00 0.00 83 1013.2
20170123225605 82 36 13.0 18.0 0.00 0.00 0.00 82 1013.1
20170123225105 82 19 11.0 21.0 0.00 0.00 0.00 83 1013.1
20170123224605 82 23 13.0 21.0 0.00 0.00 0.00 83 1013.1
20170123224105 82 24 13.0 22.0 0.00 0.00 0.00 82 1012.9
20170123223605 82 32 19.0 22.0 0.00 0.00 0.00 82 1012.9
20170123223105 82 35 19.0 21.0 0.00 0.00 0.00 83 1012.9
20170123222605 82 14 6.0 12.0 0.00 0.00 0.00 83 1012.8
20170123222105 81 15 6.0 12.0 0.00 0.00 0.00 83 1012.8
20170123221605 81 9 5.0 13.0 0.00 0.00 0.00 83 1012.8
20170123221109 81 26 12.0 23.0 0.00 0.00 0.00 83 1012.6
20170123220605 81 19 6.0 23.0 0.00 0.00 0.00 83 1012.6
20170123220105 81 51 16.0 22.0 0.00 0.00 0.00 83 1012.6
20170123215605 80 15 9.0 12.0 0.00 0.00 0.00 84 1012.3
20170123215105 80 26 9.0 12.0 0.00 0.00 0.00 84 1012.3
20170123214605 80 13 5.0 11.0 0.00 0.00 0.00 83 1012.3
20170123214106 80 15 8.0 11.0 0.00 0.00 0.00 83 1012.3
20170123213605 80 20 8.0 11.0 0.00 0.00 0.00 84 1012.3
20170123213105 81 9 5.0 11.0 0.00 0.00 0.00 83 1012.4
20170123212605 81 15 7.0 12.0 0.00 0.00 0.00 83 1012.1
20170123212105 81 28 5.0 15.0 0.00 0.00 0.00 83 1012.1
20170123211606 81 38 12.0 15.0 0.00 0.00 0.00 83 1012.1
20170123211105 80 26 12.0 16.0 0.00 0.00 0.00 83 1011.8
20170123210605 80 22 9.0 16.0 0.00 0.00 0.00 84 1011.8
20170123210105 80 35 5.0 11.0 0.00 0.00 0.00 84 1011.8
20170123205605 80 14 6.0 11.0 0.00 0.00 0.00 84 1011.8
20170123205106 80 15 6.0 14.0 0.00 0.00 0.00 84 1011.8
20170123204605 81 33 6.0 19.0 0.00 0.00 0.00 83 1011.9
20170123204105 81 18 9.0 24.0 0.00 0.00 0.00 84 1011.7
20170123203605 81 32 18.0 24.0 0.00 0.00 0.00 82 1011.7
20170123203105 81 26 14.0 22.0 0.00 0.00 0.00 84 1011.7
20170123202605 81 34 15.0 26.0 0.00 0.00 0.00 83 1011.5
20170123202105 81 46 19.0 26.0 0.00 0.00 0.00 83 1011.5
20170123201605 81 13 10.0 22.0 0.00 0.00 0.00 84 1011.5
20170123201105 81 44 16.0 24.0 0.00 0.00 0.00 84 1011.4
20170123200606 81 26 17.0 24.0 0.00 0.00 0.00 83 1011.4
20170123200105 81 32 22.0 23.0 0.00 0.00 0.00 82 1011.4
20170123195605 81 45 18.0 24.0 0.00 0.00 0.00 84 1011.3
20170123195106 81 18 13.0 24.0 0.00 0.00 0.00 82 1011.3
20170123194605 81 35 22.0 23.0 0.00 0.00 0.00 83 1011.3
20170123194105 81 36 19.0 22.0 0.00 0.00 0.00 83 1011.2
20170123193605 81 21 13.0 22.0 0.00 0.00 0.00 83 1011.2
20170123193105 81 34 17.0 22.0 0.00 0.00 0.00 83 1011.2
20170123192606 81 31 13.0 24.0 0.00 0.00 0.00 82 1011.0
20170123192105 81 19 19.0 24.0 0.00 0.00 0.00 84 1011.0
20170123191605 81 35 16.0 22.0 0.00 0.00 0.00 84 1011.0
20170123191105 81 36 18.0 22.0 0.00 0.00 0.00 83 1011.0
20170123190606 81 34 18.0 23.0 0.00 0.00 0.00 82 1011.0
20170123190106 81 42 20.0 23.0 0.00 0.00 0.00 82 1011.0
20170123185605 81 30 18.0 22.0 0.00 0.00 0.00 84 1010.9
20170123185105 81 24 15.0 21.0 0.00 0.00 0.00 83 1010.9
20170123184605 81 32 18.0 21.0 0.00 0.00 0.00 84 1010.9
20170123184105 81 36 14.0 24.0 0.00 0.00 0.00 83 1010.9
20170123183605 81 47 18.0 24.0 0.00 0.00 0.00 83 1010.9
20170123183106 81 39 18.0 23.0 0.00 0.00 0.00 82 1010.9
20170123182605 81 21 21.0 23.0 0.00 0.00 0.00 83 1010.9
20170123182105 81 48 19.0 23.0 0.00 0.00 0.00 82 1010.9
20170123181605 81 38 16.0 23.0 0.00 0.00 0.00 81 1010.9
20170123181105 81 39 14.0 22.0 0.00 0.00 0.00 82 1010.7
20170123180605 81 42 20.0 22.0 0.00 0.00 0.00 83 1010.7
20170123180105 81 33 17.0 22.0 0.00 0.00 0.00 82 1010.7
20170123175606 81 35 20.0 21.0 0.00 0.00 0.00 82 1010.7
20170123175105 81 41 16.0 21.0 0.00 0.00 0.00 83 1010.7
20170123174605 81 31 13.0 22.0 0.00 0.00 0.00 83 1010.7
20170123174106 81 28 15.0 23.0 0.00 0.00 0.00 83 1010.7
20170123173605 81 43 19.0 23.0 0.00 0.00 0.00 83 1010.7
20170123173105 81 34 11.0 16.0 0.00 0.00 0.00 85 1010.7
20170123172605 81 25 11.0 24.0 0.00 0.00 0.00 84 1010.7
20170123172105 81 28 15.0 24.0 0.00 0.00 0.00 85 1010.7
20170123171605 81 31 16.0 23.0 0.00 0.00 0.00 83 1010.7
20170123171105 81 20 16.0 23.0 0.00 0.00 0.00 83 1010.8
20170123170605 81 36 16.0 22.0 0.00 0.00 0.00 84 1010.8
20170123170106 81 40 16.0 21.0 0.00 0.00 0.00 83 1010.8
20170123165605 81 44 18.0 21.0 0.00 0.00 0.00 83 1010.9
20170123165105 81 40 19.0 21.0 0.00 0.00 0.00 83 1010.9
20170123164605 81 40 18.0 21.0 0.00 0.00 0.00 83 1010.9
20170123164105 81 32 16.0 22.0 0.00 0.00 0.00 83 1011.0
20170123163605 81 48 15.0 22.0 0.00 0.00 0.00 84 1011.0
20170123163105 81 42 19.0 23.0 0.00 0.00 0.00 83 1011.0
20170123162605 81 36 16.0 23.0 0.00 0.00 0.00 83 1011.2
20170123162105 81 34 22.0 23.0 0.00 0.00 0.00 83 1011.2
20170123161605 81 44 18.0 24.0 0.00 0.00 0.00 83 1011.2
20170123161105 81 43 17.0 24.0 0.00 0.00 0.00 82 1011.3
20170123160605 81 32 18.0 26.0 0.00 0.00 0.00 83 1011.3
20170123160105 81 44 19.0 26.0 0.00 0.00 0.00 84 1011.3
20170123155605 81 43 16.0 23.0 0.00 0.00 0.00 85 1011.4
20170123155105 81 52 15.0 23.0 0.00 0.00 0.00 86 1011.4
20170123154605 81 57 19.0 21.0 0.00 0.00 0.00 86 1011.4
20170123154105 81 28 14.0 23.0 0.00 0.00 0.00 86 1011.8
20170123153605 82 42 16.0 23.0 0.00 0.00 0.00 85 1011.8
20170123153105 82 40 22.0 23.0 0.00 0.00 0.00 81 1011.8
20170123152605 81 48 21.0 23.0 0.00 0.00 0.00 82 1011.8
20170123152106 82 40 16.0 24.0 0.00 0.00 0.00 85 1011.8
20170123151605 81 47 20.0 24.0 0.00 0.00 0.00 83 1011.8
20170123151105 82 52 15.0 22.0 0.00 0.00 0.00 84 1011.9
20170123150605 81 54 19.0 24.0 0.00 0.00 0.00 83 1011.9
20170123150105 81 54 20.0 24.0 0.00 0.00 0.00 83 1011.9
20170123145605 81 51 20.0 22.0 0.00 0.00 0.00 85 1011.9
20170123145105 81 36 20.0 21.0 0.00 0.00 0.00 84 1011.9
20170123144605 81 42 16.0 22.0 0.00 0.00 0.00 84 1011.9
20170123144105 81 44 18.0 24.0 0.00 0.00 0.00 84 1011.9
20170123143606 81 36 18.0 24.0 0.00 0.00 0.00 85 1011.9
20170123143105 81 45 13.0 25.0 0.00 0.00 0.00 86 1011.9
20170123142605 82 31 15.0 25.0 0.00 0.00 0.00 85 1011.9
20170123142105 81 42 20.0 23.0 0.00 0.00 0.00 82 1011.9
20170123141605 81 59 19.0 23.0 0.00 0.00 0.00 84 1011.9
20170123141105 81 47 19.0 23.0 0.00 0.00 0.00 84 1011.8
20170123140605 81 52 16.0 23.0 0.00 0.00 0.00 85 1011.8
20170123140105 81 41 17.0 23.0 0.00 0.00 0.00 86 1011.8
20170123135605 81 34 19.0 23.0 0.00 0.00 0.00 85 1011.9
20170123135105 81 28 17.0 21.0 0.00 0.00 0.00 85 1011.9
20170123134605 81 32 15.0 21.0 0.00 0.00 0.00 86 1011.9
20170123134105 81 38 16.0 21.0 0.00 0.00 0.00 87 1011.9
20170123133605 80 33 16.0 19.0 0.00 0.00 0.00 87 1011.9
20170123133105 80 11 11.0 24.0 0.00 0.00 0.00 85 1011.9
20170123132605 81 24 13.0 24.0 0.00 0.00 0.00 85 1011.9
20170123132105 81 44 16.0 22.0 0.00 0.00 0.00 86 1011.9
20170123131605 81 41 17.0 23.0 0.00 0.00 0.00 85 1011.9